Home   Weather   Jacksonville   Past weeks

Flag for USA Past Weather in Jacksonville, Florida, USA — Yesterday and Last 2 Weeks

Now
58 °F

Passing clouds.


Feels Like: 55 °F
Forecast: 55 / 65 °F
Wind: 13 mph from Southwest

Location: Jacksonville Naval Air Station

Current Time: Jan 23, 2017 at 5:44:54 am

Latest Report: Jan 23, 2017 at 4:53 am


Visibility: 10 mi

Pressure: 29.40 "Hg

Humidity: 75%

Dew Point: 50 °F

Location of JacksonvilleLocation

Past Weather in Jacksonville — Graph

°F

Jacksonville Temperature Yesterday

Maximum temperature yesterday: 78 °F (at 1:53 pm)
Minimum temperature yesterday: 63 °F (at 10:53 pm)
Average temperature yesterday: 71 °F

High & Low Weather Summary for the Past Weeks

 TemperatureHumidityPressure
High83 °F (Jan 20, 2:53 pm)100% (Jan 14, 9:53 am)30.66 "Hg (Jan 14, 9:53 am)
Low31 °F (Jan 8, 5:53 am)34% (Jan 8, 2:53 pm)29.37 "Hg (Jan 22, 5:53 pm)
Average63 °F78%30.20 "Hg
* Reported Jan 8 3:53 am — Jan 23 3:53 am, Jacksonville, Weather by CustomWeather, © 2017

Note: Actual official high and low records may vary slightly from our data, if they occured in-between our weather recording intervals... More about our weather records

Advertising

Jacksonville Weather History for the Previous 24 Hours

Scroll right to see more
 ConditionsComfort  
Time TempWeatherWind HumidityBarometerVisibility
3:53 am
Mon, Jan 23
58 °FPassing clouds.13 mph84%29.42 "Hg10 mi
2:53 am59 °FPassing clouds.9 mph81%29.42 "Hg10 mi
1:53 am60 °FPassing clouds.8 mph75%29.43 "Hg10 mi
12:53 am61 °FPassing clouds.10 mph67%29.44 "Hg10 mi
11:53 pm
Sun, Jan 22
63 °FPassing clouds.17 mph58%29.44 "Hg10 mi
10:53 pm63 °FPassing clouds.10 mph58%29.45 "Hg10 mi
9:53 pm65 °FPassing clouds.21 mph56%29.47 "Hg10 mi
8:53 pm68 °FPassing clouds.28 mph70%29.43 "Hg10 mi
7:53 pm73 °FPassing clouds.23 mph76%29.37 "Hg10 mi
6:29 pm75 °FThunderstorms. Overcast.22 mph82%29.37 "Hg10 mi
5:53 pm75 °FCloudy.16 mph79%29.37 "Hg10 mi
4:53 pm75 °FBroken clouds.9 mph79%29.42 "Hg10 mi
4:10 pm75 °FBroken clouds.14 mph79%29.44 "Hg10 mi
3:53 pm72 °FThunderstorms. Broken clouds.17 mph84%29.44 "Hg9 mi
2:53 pm77 °FThunderstorms. Broken clouds.16 mph77%29.48 "Hg9 mi
1:53 pm78 °FThunderstorms. Broken clouds.7 mph79%29.47 "Hg10 mi
1:25 pm77 °FThunderstorms. Broken clouds.12 mph77%29.50 "Hg5 mi
12:53 pm77 °FBroken clouds.13 mph74%29.53 "Hg10 mi
11:53 am76 °FCloudy.6 mph77%29.58 "Hg10 mi
11:28 am76 °FBroken clouds.12 mph77%29.61 "Hg10 mi
10:53 am76 °FPartly sunny.13 mph77%29.62 "Hg10 mi
9:53 am73 °FPartly sunny.17 mph84%29.61 "Hg10 mi
9:22 am72 °FPartly sunny.18 mph84%29.63 "Hg10 mi
8:53 am71 °FPartly sunny.20 mph87%29.62 "Hg10 mi
7:53 am69 °FPartly sunny.18 mph90%29.62 "Hg10 mi
6:53 am69 °FPassing clouds.15 mph84%29.66 "Hg10 mi
6:18 am68 °FPassing clouds.14 mph87%29.68 "Hg10 mi
5:53 am68 °FPassing clouds.14 mph84%29.67 "Hg10 mi
Weather by CustomWeather, © 2017

See weather overviewHow to use our weather pages